Time,TemperatureF,DewpointF,PressureIn,WindDirection,WindDirectionDegrees,WindSpeedMPH,WindSpeedGustMPH,Humidity,HourlyPrecipIn,Conditions,Clouds,dailyrainin,SolarRadiationWatts/m^2,SoftwareType,DateUTC
2013-04-05 00:02:00,28.0,16.0,-100.00,NNE,12,3.0,6.0,60,0.00,,,0.00,1.000000,,2013-04-05 05:02:00,
2013-04-05 00:13:00,28.0,16.0,-100.00,NNE,12,3.0,6.0,60,0.00,,,0.00,1.000000,,2013-04-05 05:13:00,
2013-04-05 00:22:00,28.0,16.0,-100.00,NNE,12,3.0,6.0,60,0.00,,,0.00,1.000000,,2013-04-05 05:22:00,
2013-04-05 00:32:00,28.0,16.0,-100.00,NNE,12,3.0,6.0,60,0.00,,,0.00,1.000000,,2013-04-05 05:32:00,
2013-04-05 01:02:00,26.0,16.0,-100.00,North,10,3.0,5.0,65,0.00,,,0.00,1.000000,,2013-04-05 06:02:00,
2013-04-05 01:12:00,26.0,16.0,-100.00,North,10,3.0,5.0,65,0.00,,,0.00,1.000000,,2013-04-05 06:12:00,
2013-04-05 01:22:00,26.0,16.0,-100.00,North,10,3.0,5.0,65,0.00,,,0.00,1.000000,,2013-04-05 06:22:00,
2013-04-05 01:32:00,26.0,16.0,-100.00,North,10,3.0,5.0,65,0.00,,,0.00,1.000000,,2013-04-05 06:32:00,
2013-04-05 02:02:00,24.0,16.0,-100.00,North,9,2.0,4.0,70,0.00,,,0.00,1.000000,,2013-04-05 07:02:00,
2013-04-05 02:12:00,24.0,16.0,-100.00,North,9,2.0,4.0,70,0.00,,,0.00,1.000000,,2013-04-05 07:12:00,
2013-04-05 02:22:00,24.0,16.0,-100.00,North,9,2.0,4.0,70,0.00,,,0.00,1.000000,,2013-04-05 07:22:00,
2013-04-05 02:32:00,24.0,16.0,-100.00,North,9,2.0,4.0,70,0.00,,,0.00,1.000000,,2013-04-05 07:32:00,
2013-04-05 03:02:00,20.0,15.0,-100.00,NW,306,0.0,2.0,82,0.00,,,0.00,1.000000,,2013-04-05 08:02:00,
2013-04-05 03:13:00,20.0,15.0,-100.00,NW,306,0.0,2.0,82,0.00,,,0.00,1.000000,,2013-04-05 08:13:00,
2013-04-05 03:22:00,20.0,15.0,-100.00,NW,306,0.0,2.0,82,0.00,,,0.00,1.000000,,2013-04-05 08:22:00,
2013-04-05 03:32:00,20.0,15.0,-100.00,NW,306,0.0,2.0,82,0.00,,,0.00,1.000000,,2013-04-05 08:32:00,
2013-04-05 04:02:00,17.0,13.0,-100.00,SW,217,0.0,2.0,85,0.00,,,0.00,1.000000,,2013-04-05 09:02:00,
2013-04-05 04:12:00,17.0,13.0,-100.00,SW,217,0.0,2.0,85,0.00,,,0.00,1.000000,,2013-04-05 09:12:00,
2013-04-05 04:22:00,17.0,13.0,-100.00,SW,217,0.0,2.0,85,0.00,,,0.00,1.000000,,2013-04-05 09:22:00,
2013-04-05 04:33:00,17.0,13.0,-100.00,SW,217,0.0,2.0,85,0.00,,,0.00,1.000000,,2013-04-05 09:33:00,
2013-04-05 05:03:00,16.0,13.0,-100.00,SW,216,0.0,0.0,88,0.00,,,0.00,1.000000,,2013-04-05 10:03:00,
2013-04-05 05:13:00,16.0,13.0,-100.00,SW,216,0.0,0.0,88,0.00,,,0.00,1.000000,,2013-04-05 10:13:00,
2013-04-05 05:23:00,16.0,13.0,-100.00,SW,216,0.0,0.0,88,0.00,,,0.00,1.000000,,2013-04-05 10:23:00,
2013-04-05 05:32:00,16.0,13.0,-100.00,SW,216,0.0,0.0,88,0.00,,,0.00,1.000000,,2013-04-05 10:32:00,
2013-04-05 06:02:00,15.0,12.0,-100.00,SSW,197,0.0,0.0,87,0.00,,,0.00,1.000000,,2013-04-05 11:02:00,
2013-04-05 06:13:00,15.0,12.0,-100.00,SSW,197,0.0,0.0,87,0.00,,,0.00,1.000000,,2013-04-05 11:13:00,
2013-04-05 06:22:00,15.0,12.0,-100.00,SSW,197,0.0,0.0,87,0.00,,,0.00,1.000000,,2013-04-05 11:22:00,
2013-04-05 06:33:00,15.0,12.0,-100.00,SSW,197,0.0,0.0,87,0.00,,,0.00,1.000000,,2013-04-05 11:33:00,
2013-04-05 07:02:00,14.0,11.0,-100.00,South,187,0.0,0.0,87,0.00,,,0.00,2.000000,,2013-04-05 12:02:00,
2013-04-05 07:12:00,14.0,11.0,-100.00,South,187,0.0,0.0,87,0.00,,,0.00,2.000000,,2013-04-05 12:12:00,
2013-04-05 07:22:00,14.0,11.0,-100.00,South,187,0.0,0.0,87,0.00,,,0.00,2.000000,,2013-04-05 12:22:00,
2013-04-05 07:32:00,14.0,11.0,-100.00,South,187,0.0,0.0,87,0.00,,,0.00,2.000000,,2013-04-05 12:32:00,
2013-04-05 08:02:00,19.0,15.0,-100.00,SSW,197,0.0,0.0,84,0.00,,,0.00,48.000000,,2013-04-05 13:02:00,
2013-04-05 08:12:00,19.0,15.0,-100.00,SSW,197,0.0,0.0,84,0.00,,,0.00,48.000000,,2013-04-05 13:12:00,
2013-04-05 08:22:00,19.0,15.0,-100.00,SSW,197,0.0,0.0,84,0.00,,,0.00,48.000000,,2013-04-05 13:22:00,
2013-04-05 08:32:00,19.0,15.0,-100.00,SSW,197,0.0,0.0,84,0.00,,,0.00,48.000000,,2013-04-05 13:32:00,
2013-04-05 09:03:00,28.0,14.0,-100.00,NNE,32,4.0,7.0,54,0.00,,,0.00,234.000000,,2013-04-05 14:03:00,
2013-04-05 09:12:00,28.0,14.0,-100.00,NNE,32,4.0,7.0,54,0.00,,,0.00,234.000000,,2013-04-05 14:12:00,
2013-04-05 09:23:00,28.0,14.0,-100.00,NNE,32,4.0,7.0,54,0.00,,,0.00,234.000000,,2013-04-05 14:23:00,
2013-04-05 09:36:00,28.0,14.0,-100.00,NNE,32,4.0,7.0,54,0.00,,,0.00,234.000000,,2013-04-05 14:36:00,
2013-04-05 10:02:00,30.0,13.0,-100.00,NE,50,5.0,8.0,49,0.00,,,0.00,417.000000,,2013-04-05 15:02:00,
2013-04-05 10:12:00,30.0,13.0,-100.00,NE,50,5.0,8.0,49,0.00,,,0.00,417.000000,,2013-04-05 15:12:00,
2013-04-05 10:23:00,30.0,13.0,-100.00,NE,50,5.0,8.0,49,0.00,,,0.00,417.000000,,2013-04-05 15:23:00,
2013-04-05 10:33:00,30.0,13.0,-100.00,NE,50,5.0,8.0,49,0.00,,,0.00,417.000000,,2013-04-05 15:33:00,
2013-04-05 11:02:00,33.0,13.0,-100.00,ENE,72,6.0,9.0,43,0.00,,,0.00,588.000000,,2013-04-05 16:02:00,
2013-04-05 11:13:00,33.0,13.0,-100.00,ENE,72,6.0,9.0,43,0.00,,,0.00,588.000000,,2013-04-05 16:13:00,
2013-04-05 11:23:00,33.0,13.0,-100.00,ENE,72,6.0,9.0,43,0.00,,,0.00,588.000000,,2013-04-05 16:23:00,
2013-04-05 11:33:00,33.0,13.0,-100.00,ENE,72,6.0,9.0,43,0.00,,,0.00,588.000000,,2013-04-05 16:33:00,
2013-04-05 12:03:00,39.0,13.0,-100.00,North,358,3.0,7.0,34,0.00,,,0.00,725.000000,,2013-04-05 17:03:00,
2013-04-05 12:13:00,39.0,13.0,-100.00,North,358,3.0,7.0,34,0.00,,,0.00,725.000000,,2013-04-05 17:13:00,
2013-04-05 12:23:00,39.0,13.0,-100.00,North,358,3.0,7.0,34,0.00,,,0.00,725.000000,,2013-04-05 17:23:00,
2013-04-05 12:32:00,39.0,13.0,-100.00,North,358,3.0,7.0,34,0.00,,,0.00,725.000000,,2013-04-05 17:32:00,
2013-04-05 13:02:00,38.0,11.0,-100.00,North,4,5.0,9.0,32,0.00,,,0.00,810.000000,,2013-04-05 18:02:00,
2013-04-05 13:12:00,38.0,11.0,-100.00,North,4,5.0,9.0,32,0.00,,,0.00,810.000000,,2013-04-05 18:12:00,
2013-04-05 13:22:00,38.0,11.0,-100.00,North,4,5.0,9.0,32,0.00,,,0.00,810.000000,,2013-04-05 18:22:00,
2013-04-05 13:33:00,38.0,11.0,-100.00,North,4,5.0,9.0,32,0.00,,,0.00,810.000000,,2013-04-05 18:33:00,
2013-04-05 14:02:00,41.0,10.0,-100.00,ESE,102,3.0,8.0,27,0.00,,,0.00,833.000000,,2013-04-05 19:02:00,
2013-04-05 14:13:00,41.0,10.0,-100.00,ESE,102,3.0,8.0,27,0.00,,,0.00,833.000000,,2013-04-05 19:13:00,
2013-04-05 14:23:00,41.0,10.0,-100.00,ESE,102,3.0,8.0,27,0.00,,,0.00,833.000000,,2013-04-05 19:23:00,
2013-04-05 14:33:00,41.0,10.0,-100.00,ESE,102,3.0,8.0,27,0.00,,,0.00,833.000000,,2013-04-05 19:33:00,
2013-04-05 15:02:00,44.0,10.0,-100.00,NNE,24,3.0,9.0,24,0.00,,,0.00,735.000000,,2013-04-05 20:02:00,
2013-04-05 15:11:00,44.0,10.0,-100.00,NNE,24,3.0,9.0,24,0.00,,,0.00,735.000000,,2013-04-05 20:11:00,
2013-04-05 15:22:00,44.0,10.0,-100.00,NNE,24,3.0,9.0,24,0.00,,,0.00,735.000000,,2013-04-05 20:22:00,
2013-04-05 15:32:00,44.0,10.0,-100.00,NNE,24,3.0,9.0,24,0.00,,,0.00,735.000000,,2013-04-05 20:32:00,
2013-04-05 16:02:00,43.0,8.0,-100.00,NNE,28,4.0,7.0,23,0.00,,,0.00,621.000000,,2013-04-05 21:02:00,
2013-04-05 16:13:00,43.0,8.0,-100.00,NNE,28,4.0,7.0,23,0.00,,,0.00,621.000000,,2013-04-05 21:13:00,
2013-04-05 16:23:00,43.0,8.0,-100.00,NNE,28,4.0,7.0,23,0.00,,,0.00,621.000000,,2013-04-05 21:23:00,
2013-04-05 16:33:00,43.0,8.0,-100.00,NNE,28,4.0,7.0,23,0.00,,,0.00,621.000000,,2013-04-05 21:33:00,
2013-04-05 17:03:00,40.0,7.0,-100.00,North,356,4.0,9.0,25,0.00,,,0.00,430.000000,,2013-04-05 22:03:00,
2013-04-05 17:13:00,40.0,7.0,-100.00,North,356,4.0,9.0,25,0.00,,,0.00,430.000000,,2013-04-05 22:13:00,
2013-04-05 17:23:00,40.0,7.0,-100.00,North,356,4.0,9.0,25,0.00,,,0.00,430.000000,,2013-04-05 22:23:00,
2013-04-05 17:33:00,40.0,7.0,-100.00,North,356,4.0,9.0,25,0.00,,,0.00,430.000000,,2013-04-05 22:33:00,
2013-04-05 18:03:00,40.0,5.0,-100.00,NNE,27,2.0,5.0,23,0.00,,,0.00,241.000000,,2013-04-05 23:03:00,
2013-04-05 18:12:00,40.0,5.0,-100.00,NNE,27,2.0,5.0,23,0.00,,,0.00,241.000000,,2013-04-05 23:12:00,
2013-04-05 18:22:00,40.0,5.0,-100.00,NNE,27,2.0,5.0,23,0.00,,,0.00,241.000000,,2013-04-05 23:22:00,
2013-04-05 18:32:00,40.0,5.0,-100.00,NNE,27,2.0,5.0,23,0.00,,,0.00,241.000000,,2013-04-05 23:32:00,
2013-04-05 19:02:00,39.0,6.0,-100.00,SW,217,1.0,4.0,25,0.00,,,0.00,100.000000,,2013-04-06 00:02:00,
2013-04-05 19:13:00,39.0,6.0,-100.00,SW,217,1.0,4.0,25,0.00,,,0.00,100.000000,,2013-04-06 00:13:00,
2013-04-05 19:23:00,39.0,6.0,-100.00,SW,217,1.0,4.0,25,0.00,,,0.00,100.000000,,2013-04-06 00:23:00,
2013-04-05 19:32:00,39.0,6.0,-100.00,SW,217,1.0,4.0,25,0.00,,,0.00,100.000000,,2013-04-06 00:32:00,
2013-04-05 20:02:00,34.0,9.0,-100.00,South,176,0.0,2.0,34,0.00,,,0.00,19.000000,,2013-04-06 01:02:00,
2013-04-05 20:13:00,34.0,9.0,-100.00,South,176,0.0,2.0,34,0.00,,,0.00,19.000000,,2013-04-06 01:13:00,
2013-04-05 20:22:00,34.0,9.0,-100.00,South,176,0.0,2.0,34,0.00,,,0.00,19.000000,,2013-04-06 01:22:00,
2013-04-05 20:32:00,34.0,9.0,-100.00,South,176,0.0,2.0,34,0.00,,,0.00,19.000000,,2013-04-06 01:32:00,
2013-04-05 21:02:00,31.0,14.0,-100.00,SSW,202,0.0,2.0,49,0.00,,,0.00,1.000000,,2013-04-06 02:02:00,
2013-04-05 21:12:00,31.0,14.0,-100.00,SSW,202,0.0,2.0,49,0.00,,,0.00,1.000000,,2013-04-06 02:12:00,
2013-04-05 21:22:00,31.0,14.0,-100.00,SSW,202,0.0,2.0,49,0.00,,,0.00,1.000000,,2013-04-06 02:22:00,
2013-04-05 21:32:00,31.0,14.0,-100.00,SSW,202,0.0,2.0,49,0.00,,,0.00,1.000000,,2013-04-06 02:32:00,
2013-04-05 22:02:00,30.0,19.0,-100.00,WSW,241,0.0,2.0,63,0.00,,,0.00,1.000000,,2013-04-06 03:02:00,
2013-04-05 22:12:00,30.0,19.0,-100.00,WSW,241,0.0,2.0,63,0.00,,,0.00,1.000000,,2013-04-06 03:12:00,
2013-04-05 22:22:00,30.0,19.0,-100.00,WSW,241,0.0,2.0,63,0.00,,,0.00,1.000000,,2013-04-06 03:22:00,
2013-04-05 22:33:00,30.0,19.0,-100.00,WSW,241,0.0,2.0,63,0.00,,,0.00,1.000000,,2013-04-06 03:33:00,
2013-04-05 23:03:00,33.0,12.0,-100.00,South,179,3.0,7.0,41,0.00,,,0.00,1.000000,,2013-04-06 04:03:00,
2013-04-05 23:14:00,33.0,12.0,-100.00,South,179,3.0,7.0,41,0.00,,,0.00,1.000000,,2013-04-06 04:14:00,
2013-04-05 23:23:00,33.0,12.0,-100.00,South,179,3.0,7.0,41,0.00,,,0.00,1.000000,,2013-04-06 04:23:00,
2013-04-05 23:32:00,33.0,12.0,-100.00,South,179,3.0,7.0,41,0.00,,,0.00,1.000000,,2013-04-06 04:32:00,